Terminal Aerodrome Forecast
Issued by NWS Quad Cities IA IL

Home | Current Version | Previous Version | Text Only | Print | Product List | Glossary On
Versions: 1 2 3 4 5 6 7 8 9 10 11 12 13 14 15 16 17 18
000
FTUS43 KDVN 031730
TAFDBQ
TAF
KDBQ 031730Z 0318/0418 28016G25KT P6SM BKN060
     FM040000 26012KT P6SM BKN080
     FM040200 24013KT P6SM VCSH BKN060
      TEMPO 0402/0404 5SM -SHRA BKN040
     FM040600 30012KT P6SM SCT100
     FM040900 35013KT P6SM SKC=

USA.gov is the U.S. government's official web portal to all federal, state and local government web resources and services.